DW1590 Weather Reports


Display with metric or nautical units.
time (UTC)temp
F
wind
direction
speed
MPH
gust
MPH
rain 1hr
in
rain 24hr
in
rain mn
in
humidity
%
barometer
mb
20260508214513 69 208 4.0 0.0 0.00 0.00 0.00 38 1010.3
20260508213100 68 213 4.0 0.0 0.00 0.00 0.00 38 1010.4
20260508211557 69 217 6.0 0.0 0.00 0.00 0.00 37 1010.4
20260508210051 69 253 4.0 0.0 0.00 0.00 0.00 36 1010.4
20260508204552 71 257 7.0 0.0 0.00 0.00 0.00 35 1010.4
20260508203042 71 257 7.0 0.0 0.00 0.00 0.00 34 1010.4
20260508201539 71 248 6.0 0.0 0.00 0.00 0.00 35 1010.8
20260508200033 70 281 6.0 0.0 0.00 0.00 0.00 36 1010.9
20260508194533 71 192 7.0 0.0 0.00 0.00 0.00 35 1011.1
20260508193026 69 313 6.0 0.0 0.00 0.00 0.00 36 1011.3
20260508191526 69 317 5.0 0.0 0.00 0.00 0.00 37 1011.9
20260508190016 70 272 4.0 0.0 0.00 0.00 0.00 37 1011.8
20260508184511 70 286 5.0 0.0 0.00 0.00 0.00 36 1011.9
20260508183011 68 257 6.0 0.0 0.00 0.00 0.00 38 1012.0
20260508181507 69 321 6.0 0.0 0.00 0.00 0.00 38 1012.2
20260508180058 68 228 7.0 0.0 0.00 0.00 0.00 40 1012.4
20260508174558 68 220 5.0 0.0 0.00 0.00 0.00 39 1012.3
20260508173049 68 240 5.0 0.0 0.00 0.00 0.00 40 1012.7
20260508171545 67 302 6.0 0.0 0.00 0.00 0.00 40 1012.9
20260508170044 67 148 5.0 0.0 0.00 0.00 0.00 42 1013.0
20260508164539 66 173 6.0 0.0 0.00 0.00 0.00 41 1013.3
20260508163031 66 187 5.0 0.0 0.00 0.00 0.00 43 1013.3
20260508161527 65 360 4.0 0.0 0.00 0.00 0.00 44 1013.4
20260508160022 64 223 7.0 0.0 0.00 0.00 0.00 44 1013.7
20260508154539 64 304 4.0 0.0 0.00 0.00 0.00 44 1013.9
20260508153014 63 360 7.0 0.0 0.00 0.00 0.00 45 1014.1
20260508151513 62 274 6.0 0.0 0.00 0.00 0.00 45 1014.3
20260508150005 62 171 4.0 0.0 0.00 0.00 0.00 48 1014.4
20260508144503 61 318 6.0 0.0 0.00 0.00 0.00 47 1014.5
20260508143105 60 274 5.0 0.0 0.00 0.00 0.00 50 1014.5
20260508141603 59 229 4.0 0.0 0.00 0.00 0.00 50 1014.5
20260508140049 59 244 4.0 0.0 0.00 0.00 0.00 52 1014.7
20260508134557 58 207 4.0 0.0 0.00 0.00 0.00 53 1014.8
20260508133049 56 228 3.0 0.0 0.00 0.00 0.00 55 1014.9
20260508131535 55 215 3.0 0.0 0.00 0.00 0.00 56 1015.0
20260508130033 53 293 3.0 0.0 0.00 0.00 0.00 60 1014.9
20260508124533 51 227 2.0 0.0 0.00 0.00 0.00 59 1015.0
20260508123041 50 254 2.0 0.0 0.00 0.00 0.00 47 1014.9
20260508121520 48 277 1.0 0.0 0.00 0.00 0.00 18 1014.8
20260508120013 47 284 0.0 0.0 0.00 0.00 0.00 2 1014.7
20260508114509 46 286 1.0 0.0 0.00 0.00 0.00 100 1014.8
20260508113005 46 283 1.0 0.0 0.00 0.00 0.00 100 1014.5
20260508111601 45 281 0.0 0.0 0.00 0.00 0.00 8 1014.4
20260508110104 45 282 0.0 0.0 0.00 0.00 0.00 23 1014.0
20260508104551 45 281 0.0 0.0 0.00 0.00 0.00 35 1013.7
20260508103052 45 279 1.0 0.0 0.00 0.00 0.00 44 1014.0
20260508101543 46 281 1.0 0.0 0.00 0.00 0.00 51 1013.9
20260508100044 47 298 0.0 0.0 0.00 0.00 0.00 55 1013.6
20260508094533 48 301 0.0 0.0 0.00 0.00 0.00 58 1013.3
20260508093030 48 311 0.0 0.0 0.00 0.00 0.00 60 1013.2
20260508091525 48 281 2.0 0.0 0.00 0.00 0.00 60 1013.3
20260508090035 48 317 3.0 0.0 0.00 0.00 0.00 59 1013.3
20260508084516 49 322 3.0 0.0 0.00 0.00 0.00 57 1013.0
20260508083012 49 308 2.0 0.0 0.00 0.00 0.00 54 1013.0
20260508081508 49 338 2.0 0.0 0.00 0.00 0.00 48 1012.9
20260508080004 49 339 2.0 0.0 0.00 0.00 0.00 39 1012.6
20260508074600 49 40 2.0 0.0 0.00 0.00 0.00 27 1012.4
20260508073109 49 257 3.0 0.0 0.00 0.00 0.00 100 1012.1
20260508071551 49 305 3.0 0.0 0.00 0.00 0.00 100 1011.9
20260508070048 49 325 4.0 0.0 0.00 0.00 0.00 100 1011.8
20260508064541 50 278 1.0 0.0 0.00 0.00 0.00 100 1011.6
20260508063039 50 254 0.0 0.0 0.00 0.00 0.00 100 1011.5
20260508061540 50 319 1.0 0.0 0.00 0.00 0.00 100 1011.4
20260508060028 50 300 1.0 0.0 0.00 0.00 0.00 100 1011.4
20260508054524 50 297 3.0 0.0 0.00 0.00 0.00 100 1011.3
20260508053022 50 276 2.0 0.0 0.00 0.00 0.00 100 1011.2
20260508051515 50 258 1.0 0.0 0.00 0.00 0.00 100 1011.1
20260508050010 51 286 1.0 0.0 0.00 0.00 0.00 100 1011.0
20260508044507 50 262 1.0 0.0 0.00 0.00 0.00 100 1011.0
20260508043004 51 249 1.0 0.0 0.00 0.00 0.00 100 1010.8
20260508041559 51 240 1.0 0.0 0.00 0.00 0.00 100 1010.7
20260508040058 51 273 2.0 0.0 0.00 0.00 0.00 100 1010.6
20260508034552 52 221 2.0 0.0 0.00 0.00 0.14 100 1010.5
20260508033054 52 221 2.0 0.0 0.00 0.00 0.14 100 1010.5
20260508031551 52 266 3.0 0.0 0.00 0.00 0.14 100 1010.5
20260508030036 52 217 2.0 0.0 0.00 0.00 0.14 100 1010.4
20260508024555 53 217 2.0 0.0 0.00 0.00 0.14 3 1010.4
20260508023027 53 203 3.0 0.0 0.00 0.00 0.14 8 1010.4
20260508021523 53 244 2.0 0.0 0.00 0.00 0.14 13 1010.3
20260508020018 53 217 2.0 0.0 0.00 0.00 0.14 25 1010.1
20260508014517 54 233 3.0 0.0 0.00 0.00 0.14 33 1010.1
20260508013013 55 196 3.0 0.0 0.00 0.00 0.14 42 1009.9
20260508011506 55 221 3.0 0.0 0.00 0.00 0.14 50 1009.8
20260508010002 56 201 4.0 0.0 0.00 0.00 0.14 55 1009.5
20260508004601 56 182 3.0 0.0 0.00 0.00 0.14 60 1009.1
20260508003054 56 175 2.0 0.0 0.00 0.00 0.14 62 1009.0
20260508001550 57 200 2.0 0.0 0.00 0.00 0.14 63 1009.0
20260508000043 57 181 2.0 0.0 0.00 0.00 0.14 63 1008.6
20260507234539 58 124 1.0 0.0 0.00 0.00 0.14 63 1008.3
20260507233035 59 186 2.0 0.0 0.00 0.00 0.14 62 1008.2
20260507231532 59 155 4.0 0.0 0.00 0.00 0.14 61 1008.0
20260507230026 60 170 3.0 0.0 0.00 0.00 0.14 60 1007.9
20260507224523 61 159 2.0 0.0 0.00 0.00 0.14 60 1007.6
20260507223018 62 175 2.0 0.0 0.00 0.00 0.14 59 1007.5
20260507221514 63 111 3.0 0.0 0.00 0.00 0.14 57 1007.5
20260507220012 64 162 2.0 0.0 0.00 0.00 0.14 55 1007.4